[[{"header":{"parameterUnit":"m.s-1","parameterCategory":1,"la1":30.2991,"la2":30.254,"lo1":-89.0895,"lo2":-89.0444,"dy":0.0017,"dx":0.0017,"nx":28,"ny":28,"refTime":"2025-11-15T09:00:00:Z","depth":0,"parameterNumber":2,"parameterNumberName":"U-component_of_WINDS"},"data":[0,0,0,0,0,0,0,0,0,0,0,0,0,0,0,0,0,0,0,0,0,0,0,0,0,0,0,0,0,0,0,0,0,0,0,0,0,0,0,0,0,0,0,0,0,0,0,0,0,0,0,0,0,0,0,0,0,0,1.6915,1.6916,0,1.6964,1.6965,1.6965,1.6991,1.6991,1.6991,1.6991,1.7047,1.7048,1.705,0,0,0,0,0,0,0,0,0,0,0,0,0,1.6849,1.685,1.6915,1.6916,1.6916,1.6964,1.6965,1.6966,1.6991,1.6991,1.6991,1.6991,1.7046,1.7048,1.705,0,0,0,0,0,0,0,0,0,0,0,0,0,1.6886,1.685,1.6915,1.6934,1.6937,1.6964,1.6965,1.6966,1.6991,1.6991,1.6991,1.6991,1.7046,1.7048,1.705,1.7063,0,0,1.7057,1.7058,0,0,0,0,0,0,0,0,1.6884,1.6888,1.6931,1.6933,1.6936,1.6971,1.6962,1.6999,1.6991,1.697,1.6991,1.6991,1.7022,1.7026,1.7036,1.7066,1.7069,1.7057,1.7058,1.7059,1.706,0,0,0,0,0,0,0,1.6881,1.6886,1.6935,1.6932,1.6934,1.6943,1.6948,1.6969,1.6996,1.6972,1.6974,1.6979,1.7023,1.7033,1.7037,1.7069,1.7057,1.7059,1.706,1.7061,1.7115,1.7115,0,0,0,0,0,0,1.6875,1.6884,1.6933,1.6936,1.6909,1.6944,1.695,1.696,1.6995,1.7001,1.6979,1.698,1.703,1.7034,1.7039,1.7058,1.7059,1.7061,1.7063,1.7115,1.7115,1.7115,0,0,0,0,0,0,1.6873,1.6879,1.6931,1.6911,1.6918,1.6945,1.6956,1.6961,1.6971,1.7001,1.7006,1.6984,1.703,1.7036,1.7057,1.706,1.7062,1.7064,1.7115,1.7115,1.7115,1.7095,0,0,0,0,0,0,1.6871,1.6878,1.6882,1.691,1.6919,1.6946,1.6956,1.6962,1.6974,1.6976,1.7007,1.7012,1.703,1.7054,1.7059,1.7063,1.7066,1.7115,1.7115,1.7115,1.7095,1.7094,1.7093,0,0,0,0,0,1.6869,1.6875,1.6882,1.6888,1.6924,1.6946,1.6951,1.6971,1.6974,1.6979,1.6999,1.7011,1.7059,1.7056,1.7062,1.7067,1.7115,1.7115,1.7115,1.7096,1.7094,1.7093,0,0,0,0,0,0,1.6848,1.6879,1.6887,1.6903,1.6921,1.6951,1.6957,1.6968,1.6988,1.6989,1.7014,1.7021,1.704,1.7056,1.7052,1.7083,1.7088,1.709,1.7071,1.707,1.7069,1.7065,1.7068,0,0,0,0,0,1.6845,1.6859,1.6886,1.6897,1.6906,1.693,1.6941,1.6954,1.6975,1.6984,1.7005,1.7026,1.7047,1.7059,1.708,1.7098,1.7106,1.7105,1.7104,1.7103,1.7104,1.7116,1.7116,1.7116,1.7116,1.7116,0,0,1.684,1.6858,1.6866,1.6894,1.691,1.6925,1.6937,1.6953,1.6965,1.6987,1.7007,1.7024,1.705,1.707,1.708,1.7084,1.7106,1.7103,1.7102,1.7104,1.7116,1.7116,1.7116,1.7116,1.7116,1.7116,0,0,1.6837,1.6852,1.6864,1.6879,1.6903,1.6919,1.6922,1.6949,1.696,1.6981,1.6998,1.7014,1.7048,1.7066,1.708,1.7085,1.7098,1.7092,1.7086,1.7098,1.7098,1.7098,1.7101,1.7101,1.7093,1.7093,1.7093,0,1.6828,1.685,1.6869,1.6883,1.6896,1.6914,1.6927,1.6942,1.6972,1.6981,1.6985,1.7028,1.7047,1.7072,1.7073,1.7083,1.7089,1.7088,1.7096,1.7096,1.7097,1.71,1.7101,1.7092,1.7092,1.7092,1.7092,0,1.6838,1.6853,1.686,1.6886,1.6899,1.6913,1.6935,1.6947,1.696,1.6976,1.6998,1.7021,1.7047,1.7054,1.7067,1.7081,1.7083,1.7091,1.7097,1.7095,1.7099,1.71,1.709,1.7091,1.7091,1.7091,0,0,1.6823,1.686,1.6862,1.6874,1.6902,1.6915,1.6931,1.6954,1.6964,1.6985,1.6999,1.7028,1.7035,1.7051,1.7066,1.7076,1.708,1.7083,1.7085,1.7083,1.7099,1.7093,1.7094,1.7089,1.7089,1.709,1.7097,0,1.6825,1.6851,1.6869,1.6889,1.6904,1.6923,1.6937,1.6957,1.6973,1.699,1.7008,1.7028,1.7036,1.7046,1.7057,1.7077,1.7084,1.7077,1.7105,1.7106,1.7097,1.7096,1.7089,1.7095,1.7099,1.7099,1.7099,0,1.6831,1.6849,1.687,1.6897,1.6904,1.6915,1.6939,1.6954,1.6978,1.6989,1.7006,1.7022,1.7041,1.7046,1.7074,1.7069,1.7081,1.7094,1.7094,1.7098,1.7102,1.71,1.7097,1.7098,1.7101,1.7101,1.7101,0,1.6819,1.6849,1.6865,1.6875,1.6907,1.6915,1.6929,1.6952,1.6965,1.6987,1.6996,1.702,1.7033,1.7052,1.7074,1.7075,1.7101,1.7107,1.7112,1.7112,1.7117,1.7116,1.7117,1.7124,1.7124,1.7124,1.7124,0,1.6819,1.6832,1.686,1.687,1.6886,1.6907,1.6922,1.6938,1.6959,1.6974,1.6992,1.7007,1.7035,1.7054,1.7072,1.7093,1.7099,1.711,1.7115,1.7108,1.7107,1.7117,1.7117,1.7125,1.7124,1.7124,1.7124,0,1.6808,1.6828,1.6847,1.6875,1.6883,1.6892,1.6918,1.6929,1.6946,1.6966,1.6972,1.6999,1.7022,1.7046,1.7078,1.709,1.7111,1.7117,1.7102,1.7105,1.7109,1.7108,1.7116,1.7119,1.7124,1.7124,1.7124,0,1.6807,1.6817,1.6846,1.6856,1.6869,1.6886,1.6899,1.6921,1.6934,1.6963,1.6971,1.6995,1.7015,1.7052,1.7076,1.7101,1.7109,1.711,1.7112,1.7106,1.7109,1.7108,1.711,1.7109,1.7108,1.7108,1.7108,0,1.6803,1.6813,1.683,1.685,1.6865,1.6883,1.6902,1.691,1.6936,1.6951,1.6973,1.6989,1.702,1.7045,1.7072,1.709,1.7104,1.7107,1.711,1.7103,1.7094,1.71,1.71,1.7107,1.7107,1.7107,1.7107,1.7107,1.6798,1.6807,1.6829,1.6848,1.6864,1.6881,1.6894,1.6912,1.693,1.6956,1.6969,1.6992,1.7017,1.7056,1.7073,1.7093,1.7097,1.71,1.7101,1.7102,1.71,1.7091,1.7098,1.7098,1.7098,1.7098,1.7098,0,1.6795,1.681,1.6827,1.6852,1.6867,1.6877,1.6899,1.6912,1.6931,1.6952,1.6971,1.6998,1.7022,1.7048,1.7074,1.7085,1.7092,1.7091,1.7091,1.7095,1.7095,1.709,1.7085,1.7085,1.7085,1.7085,1.7085,1.7085,1.6796,1.6813,1.6825,1.6851,1.6866,1.6887,1.6899,1.6915,1.6933,1.6961,1.698,1.6996,1.702,1.7048,1.7071,1.7078,1.7088,1.7084,1.7094,1.7094,1.7095,1.7096,1.7091,1.7086,1.7086,1.7092,1.7092,1.7092]},{"header":{"parameterUnit":"m.s-1","parameterCategory":1,"la1":30.2991,"la2":30.254,"lo1":-89.0895,"lo2":-89.0444,"dy":0.0017,"dx":0.0017,"nx":28,"ny":28,"refTime":"2025-11-15T09:00:00:Z","depth":0,"parameterNumber":3,"parameterNumberName":"V-component_of_WINDS"},"data":[0,0,0,0,0,0,0,0,0,0,0,0,0,0,0,0,0,0,0,0,0,0,0,0,0,0,0,0,0,0,0,0,0,0,0,0,0,0,0,0,0,0,0,0,0,0,0,0,0,0,0,0,0,0,0,0,0,0,1.1807,1.1808,0,1.1875,1.1876,1.1877,1.1862,1.186,1.1859,1.1858,1.1925,1.1928,1.1931,0,0,0,0,0,0,0,0,0,0,0,0,0,1.1659,1.1662,1.1807,1.1808,1.1809,1.1875,1.1876,1.1877,1.1862,1.186,1.1859,1.1857,1.1924,1.1927,1.1931,0,0,0,0,0,0,0,0,0,0,0,0,0,1.1725,1.1663,1.1807,1.1809,1.181,1.1875,1.1876,1.1877,1.1862,1.186,1.1858,1.1857,1.1923,1.1927,1.1931,1.1997,0,0,1.1945,1.1947,0,0,0,0,0,0,0,0,1.1721,1.173,1.1808,1.1809,1.181,1.1858,1.1848,1.1917,1.1863,1.1842,1.1858,1.1856,1.1904,1.191,1.1927,1.2,1.2003,1.1945,1.1948,1.195,1.1951,0,0,0,0,0,0,0,1.1716,1.1727,1.1834,1.1809,1.181,1.1805,1.1813,1.1861,1.1883,1.1844,1.1843,1.1851,1.1904,1.1923,1.1928,1.2004,1.1945,1.1949,1.1952,1.1954,1.2133,1.2135,0,0,0,0,0,0,1.1711,1.1723,1.1832,1.1836,1.176,1.181,1.1818,1.1845,1.1882,1.1886,1.1853,1.1851,1.1916,1.1923,1.1931,1.2008,1.195,1.1954,1.1957,1.2131,1.2133,1.2135,0,0,0,0,0,0,1.1708,1.1721,1.1829,1.1779,1.1793,1.1814,1.1844,1.1847,1.1865,1.1889,1.1893,1.1868,1.1915,1.1924,1.198,1.2011,1.1956,1.196,1.2128,1.2131,1.2134,1.2166,0,0,0,0,0,0,1.1704,1.172,1.1747,1.178,1.1796,1.1879,1.1846,1.185,1.1873,1.1871,1.1904,1.1908,1.1914,1.1974,1.1985,1.2016,1.1964,1.2125,1.213,1.2133,1.2162,1.2169,1.2176,0,0,0,0,0,1.1699,1.1753,1.1748,1.1761,1.1829,1.1881,1.189,1.1896,1.1876,1.1902,1.1917,1.1907,1.2006,1.198,1.1992,1.2025,1.2124,1.2128,1.2133,1.2159,1.2168,1.2176,0,0,0,0,0,0,1.1721,1.1757,1.1752,1.1819,1.1847,1.1878,1.1911,1.1906,1.194,1.1936,1.1941,1.1949,1.2006,1.2021,1.1991,1.2089,1.2061,1.2069,1.2077,1.2086,1.2093,1.2087,1.1968,0,0,0,0,0,1.1734,1.1775,1.1803,1.1859,1.1873,1.189,1.1913,1.1915,1.1944,1.1956,1.1975,1.2002,1.2039,1.2064,1.2099,1.2164,1.217,1.2192,1.2199,1.2205,1.2211,1.2244,1.2254,1.2151,1.2151,1.2151,0,0,1.1761,1.1785,1.181,1.1864,1.1886,1.1926,1.19,1.1944,1.1973,1.1962,1.2016,1.2031,1.2062,1.2122,1.215,1.2137,1.2241,1.2211,1.2215,1.2218,1.225,1.2259,1.2268,1.2154,1.2153,1.2153,0,0,1.183,1.1853,1.1901,1.1924,1.1958,1.1968,1.1979,1.2011,1.2021,1.2076,1.2068,1.2101,1.2166,1.2187,1.2207,1.2282,1.2273,1.2293,1.2329,1.2361,1.2369,1.2376,1.2401,1.241,1.2299,1.2299,1.2299,0,1.1858,1.1919,1.1926,1.1971,1.1993,1.1986,1.2033,1.2055,1.2098,1.2113,1.2098,1.2177,1.2197,1.2262,1.228,1.2296,1.2308,1.2289,1.2368,1.2375,1.2382,1.2405,1.2415,1.2301,1.2301,1.2301,1.2301,0,1.1952,1.1994,1.2028,1.2071,1.2098,1.2143,1.2156,1.2182,1.2181,1.2193,1.2247,1.2271,1.231,1.2326,1.2326,1.239,1.238,1.2367,1.2339,1.2393,1.2416,1.2425,1.2304,1.2304,1.2303,1.2302,0,0,1.2037,1.2082,1.2094,1.2112,1.2148,1.218,1.2225,1.2264,1.2285,1.2315,1.2351,1.2405,1.2392,1.2414,1.2416,1.2445,1.25,1.2427,1.2428,1.2438,1.2568,1.2577,1.2588,1.2495,1.2496,1.2498,1.2565,0,1.2107,1.2187,1.2193,1.2264,1.2302,1.2295,1.2333,1.2358,1.237,1.2402,1.2414,1.2452,1.2433,1.2446,1.2474,1.2487,1.2526,1.2483,1.2526,1.2528,1.2517,1.26,1.261,1.2672,1.2574,1.2576,1.2577,0,1.22,1.2233,1.2308,1.2337,1.2353,1.2387,1.2422,1.2454,1.2482,1.2488,1.2512,1.251,1.2554,1.2525,1.2584,1.2554,1.2572,1.2581,1.2584,1.2587,1.2555,1.2604,1.2693,1.2701,1.2591,1.259,1.2589,0,1.2252,1.2315,1.2367,1.2383,1.2419,1.2443,1.2459,1.2485,1.2507,1.2538,1.2552,1.2587,1.2605,1.2631,1.2638,1.2617,1.2696,1.2668,1.27,1.27,1.2716,1.2715,1.2808,1.2731,1.2731,1.2731,1.273,0,1.233,1.2375,1.2391,1.2423,1.2473,1.2479,1.2528,1.2542,1.2565,1.2598,1.2594,1.2625,1.2633,1.2664,1.267,1.2716,1.2725,1.273,1.273,1.2729,1.2728,1.274,1.2735,1.2733,1.2732,1.2732,1.2732,0,1.2396,1.2409,1.2465,1.2494,1.2502,1.2537,1.2561,1.2591,1.2602,1.2643,1.2654,1.267,1.2707,1.2716,1.2761,1.2764,1.2818,1.2816,1.2809,1.2808,1.2839,1.2836,1.2942,1.2955,1.2871,1.2872,1.2872,0,1.2443,1.2478,1.2511,1.2533,1.255,1.2586,1.2609,1.2616,1.264,1.2673,1.2698,1.2735,1.2764,1.2823,1.2838,1.2871,1.2868,1.2903,1.2873,1.287,1.2866,1.2864,1.2866,1.2908,1.2909,1.291,1.2911,0,1.2526,1.253,1.2564,1.2599,1.2627,1.2655,1.2681,1.27,1.271,1.2737,1.2775,1.2798,1.2843,1.2878,1.2911,1.2926,1.2919,1.292,1.2929,1.2927,1.2921,1.2923,1.2823,1.2917,1.2917,1.2916,1.2916,1.2916,1.2583,1.2613,1.264,1.2677,1.2698,1.2723,1.2752,1.2766,1.2798,1.2836,1.2838,1.2878,1.2903,1.2947,1.2963,1.2994,1.2983,1.2997,1.3,1.3002,1.3004,1.2918,1.3,1.3,1.3,1.3,1.3,0,1.2664,1.2681,1.2715,1.2752,1.2781,1.2774,1.2802,1.2826,1.2862,1.2887,1.2916,1.2958,1.2992,1.301,1.3043,1.3064,1.3062,1.3072,1.307,1.3073,1.3013,1.3001,1.3074,1.3074,1.3074,1.3073,1.3073,1.3073,1.2709,1.2758,1.2765,1.2824,1.2841,1.2881,1.2898,1.292,1.2939,1.2987,1.3016,1.3027,1.3048,1.3082,1.3112,1.3116,1.3128,1.314,1.3142,1.3085,1.3078,1.307,1.3059,1.3143,1.3143,1.3199,1.32,1.32]}]]